Location: Gaast
(52.9002°N, 5.8891°E)
Time: 11:36:11
(UTC+00:00)

ARIANE 6 FM1 Upper Stage - Pass Details

Date: 18 November 2025
Orbit: 522 x 611 km, 62.0° (Epoch: 10 December)

Event Time Altitude Azimuth Distance (km) Brightness Sun altitude
Rises 16:13:42 0° 263° (W) 2,667 7.8 -5.6°
Reaches altitude 10° 16:16:04 10° 273° (W) 1,772 6.4 -6.0°
Maximum altitude 16:19:39 32° 338° (NNW) 927 3.8 -6.5°
Drops below altitude 10° 16:23:14 10° 43° (NE) 1,769 4.6 -7.0°
Enters shadow 16:23:48 - 46° (NE) 1,972 4.9 -7.0°
